Home   Weather   Vancouver   Past weeks
Flag for Canada

Past Weather in Vancouver, British Columbia, Canada — Yesterday and Last 2 Weeks

Now
50 °F

Light rain. More clouds than sun.


Feels Like: 47 °F
Forecast: 53 / 50 °F
Wind: 8 mph from East

Location: Vancouver International Airport

Current Time: Apr 18, 2019 at 9:33:19 am

Latest Report: Apr 18, 2019 at 8:36 am


Visibility: 10 mi

Pressure: 30.22 "Hg

Humidity: 94%

Dew Point: 48 °F

Location of VancouverLocation

Past Weather in Vancouver — Graph

°F

Vancouver Temperature Yesterday

Maximum temperature yesterday: 59 °F (at 2:00 pm)
Minimum temperature yesterday: 46 °F (at 6:00 am)
Average temperature yesterday: 53 °F

High & Low Weather Summary for the Past Weeks

 TemperatureHumidityPressure
High59 °F (Apr 17, 2:00 pm)100% (Apr 12, 6:00 am)30.31 "Hg (Apr 12, 6:00 am)
Low36 °F (Apr 16, 12:32 am)50% (Apr 14, 2:00 pm)29.55 "Hg (Apr 5, 2:00 pm)
Average49 °F80%29.95 "Hg
* Reported Apr 3 8:00 am — Apr 18 8:36 am, Vancouver. Weather by CustomWeather, © 2019

Note: Actual official high and low records may vary slightly from our data, if they occured in-between our weather recording intervals... More about our weather records

Advertising

Vancouver Weather History for the Previous 24 Hours

Scroll right to see more
 ConditionsComfort  
Time TempWeatherWind HumidityBarometerVisibility
8:36 am
Thu, Apr 18
50 °FLight rain. More clouds than sun.8 mph94%30.22 "Hg10 mi
8:00 am50 °FLight rain. Mostly cloudy.9 mph94%30.22 "Hg10 mi
7:00 am50 °FLight rain. Cloudy.9 mph94%30.23 "Hg8 mi
6:00 am50 °FLight rain. Mostly cloudy.9 mph94%30.24 "Hg10 mi
5:00 am50 °FLight rain. Mostly cloudy.7 mph94%30.25 "Hg12 mi
4:00 am50 °FLight rain. Overcast.8 mph94%30.26 "Hg10 mi
3:00 am50 °FLight rain. Mostly cloudy.12 mph88%30.27 "Hg8 mi
2:00 am50 °FLight rain. Mostly cloudy.10 mph88%30.28 "Hg10 mi
1:00 am50 °FLight rain. Mostly cloudy.8 mph94%30.29 "Hg10 mi
12:00 am52 °FLight rain. Mostly cloudy.10 mph88%30.29 "Hg15 mi
11:00 pm
Wed, Apr 17
52 °FLight rain. Mostly cloudy.9 mph88%30.30 "Hg15 mi
10:00 pm54 °FLight rain. Overcast.8 mph82%30.31 "Hg15 mi
9:00 pm55 °FLight rain. Mostly cloudy.6 mph77%30.29 "Hg20 mi
8:52 pm55 °FLight rain. Mostly cloudy.6 mph72%30.29 "Hg20 mi
8:00 pm55 °FOvercast.6 mph72%30.28 "Hg30 mi
7:26 pm55 °FOvercast.6 mph72%30.28 "Hg30 mi
7:14 pm55 °FLight rain. Overcast.7 mph67%30.28 "Hg30 mi
6:00 pm57 °FMostly cloudy.5 mph67%30.28 "Hg20 mi
5:00 pm57 °FMostly cloudy.7 mph67%30.28 "Hg20 mi
4:00 pm59 °FMostly cloudy.10 mph63%30.28 "Hg20 mi
3:00 pm57 °FMostly cloudy.3 mph63%30.29 "Hg20 mi
2:00 pm59 °FPartly sunny.8 mph63%30.29 "Hg20 mi
1:00 pm57 °FBroken clouds.6 mph72%30.29 "Hg20 mi
12:00 pm54 °FPartly sunny.8 mph77%30.29 "Hg20 mi
11:00 am52 °FFog.7 mph82%30.27 "Hg15 mi
10:00 am52 °FMore clouds than sun.8 mph77%30.25 "Hg15 mi
9:09 am52 °FOvercast.9 mph82%30.24 "Hg15 mi
Weather by CustomWeather, © 2019

See weather overview